EW7082 Weather Reports


Display with metric or nautical units.
time (UTC)temp
F
wind
direction
speed
MPH
gust
MPH
rain 1hr
in
rain 24hr
in
rain mn
in
humidity
%
barometer
mb
20260831141204 50 240 0.0 0.0 0.00 0.00 0.00 97 1015.0
20260831140704 49 240 0.0 0.0 0.00 0.00 0.00 97 1015.0
20260831140204 49 240 0.0 0.0 0.00 0.00 0.00 96 1015.0
20260831135203 49 240 0.0 0.0 0.00 0.00 0.00 97 1015.0
20260831134706 49 240 0.0 0.0 0.00 0.00 0.00 96 1015.0
20260831133704 49 240 0.0 0.0 0.00 0.00 0.00 97 1015.0
20260831133205 49 240 0.0 0.0 0.00 0.00 0.00 96 1015.0
20260831132204 49 240 0.0 0.0 0.00 0.00 0.00 96 1015.2
20260831131704 49 240 0.0 0.0 0.00 0.00 0.00 96 1015.2
20260831131205 49 240 0.0 0.0 0.00 0.00 0.00 96 1015.3
20260831130703 49 240 0.0 0.0 0.00 0.00 0.00 96 1015.4
20260831130204 49 240 0.0 0.0 0.00 0.00 0.00 96 1015.4
20260831125203 49 240 0.0 0.0 0.00 0.00 0.00 96 1015.4
20260831124706 50 240 0.0 0.0 0.00 0.00 0.00 96 1015.4
20260831124205 50 240 0.0 0.0 0.00 0.00 0.00 96 1015.4
20260831123205 50 240 0.0 1.0 0.00 0.00 0.00 96 1015.4
20260831122203 50 240 0.0 1.0 0.00 0.00 0.00 96 1015.4
20260831121704 50 240 0.0 0.0 0.00 0.00 0.00 96 1015.4
20260831121204 50 240 0.0 1.0 0.00 0.00 0.00 96 1015.5
20260831120705 49 240 0.0 2.0 0.00 0.00 0.00 96 1015.6
20260831120205 50 240 0.0 1.0 0.00 0.00 0.00 96 1015.6
20260831115704 50 240 0.0 2.0 0.00 0.00 0.00 96 1015.7
20260831115203 49 239 1.0 2.0 0.00 0.00 0.00 96 1015.7
20260831114704 50 211 1.0 1.0 0.00 0.00 0.00 95 1015.8
20260831113704 51 211 0.0 0.0 0.00 0.00 0.00 96 1015.8
20260831113204 50 211 0.0 0.0 0.00 0.00 0.00 96 1015.8
20260831112705 50 211 0.0 0.0 0.00 0.00 0.00 96 1015.8
20260831112204 50 211 0.0 0.0 0.00 0.00 0.00 95 1015.9
20260831111204 51 211 1.0 2.0 0.00 0.00 0.00 96 1016.0
20260831110704 51 211 0.0 1.0 0.00 0.00 0.00 96 1016.1
20260831105705 51 211 0.0 0.0 0.00 0.00 0.00 95 1016.2
20260831105204 51 211 0.0 1.0 0.00 0.00 0.00 96 1016.2
20260831104706 51 211 0.0 1.0 0.00 0.00 0.00 95 1016.2
20260831104204 51 211 0.0 0.0 0.00 0.00 0.00 95 1016.2
20260831103704 52 211 0.0 0.0 0.00 0.00 0.00 96 1016.2
20260831103205 51 211 0.0 0.0 0.00 0.00 0.00 95 1016.2
20260831102704 52 211 0.0 0.0 0.00 0.00 0.00 95 1016.2
20260831102203 52 211 0.0 0.0 0.00 0.00 0.00 95 1016.2
20260831101704 52 211 0.0 1.0 0.00 0.00 0.00 95 1016.2
20260831101205 52 211 0.0 1.0 0.00 0.00 0.00 95 1016.3
20260831100704 52 211 1.0 1.0 0.00 0.00 0.00 95 1016.3
20260831100205 52 211 0.0 1.0 0.00 0.00 0.00 95 1016.4
20260831095705 52 211 1.0 1.0 0.00 0.00 0.00 95 1016.4
20260831095204 52 211 0.0 0.0 0.00 0.00 0.00 95 1016.5
20260831094705 52 211 0.0 0.0 0.00 0.00 0.00 95 1016.6
20260831094204 52 180 0.0 0.0 0.00 0.00 0.00 95 1016.6
20260831093705 52 180 0.0 1.0 0.00 0.00 0.00 95 1016.7
20260831093205 52 180 0.0 0.0 0.00 0.00 0.00 95 1016.6
20260831092704 52 180 0.0 1.0 0.00 0.00 0.00 95 1016.6
20260831092203 53 180 0.0 1.0 0.00 0.00 0.00 95 1016.7
20260831091704 52 180 0.0 2.0 0.00 0.00 0.00 94 1016.7
20260831091204 52 217 1.0 2.0 0.00 0.00 0.00 94 1016.8
20260831090205 53 225 1.0 2.0 0.00 0.00 0.00 95 1016.9
20260831085704 53 225 2.0 3.0 0.00 0.00 0.00 94 1016.9
20260831085204 52 219 2.0 3.0 0.00 0.00 0.00 94 1016.9
20260831084705 53 232 0.0 1.0 0.00 0.00 0.00 94 1016.9
20260831084204 53 232 0.0 1.0 0.00 0.00 0.00 94 1016.9
20260831083704 53 232 0.0 1.0 0.00 0.00 0.00 93 1017.0
20260831083205 53 230 0.0 1.0 0.00 0.00 0.00 94 1017.1
20260831082704 53 213 1.0 1.0 0.00 0.00 0.00 93 1017.2
20260831082205 54 213 0.0 1.0 0.00 0.00 0.00 93 1017.2
20260831081704 54 213 1.0 1.0 0.00 0.00 0.00 94 1017.2
20260831081203 54 213 1.0 2.0 0.00 0.00 0.00 93 1017.3
20260831080704 54 213 1.0 2.0 0.00 0.00 0.00 93 1017.3
20260831080205 55 213 2.0 3.0 0.00 0.00 0.00 94 1017.4
20260831075204 55 213 1.0 2.0 0.00 0.00 0.00 94 1017.3
20260831074204 55 213 2.0 3.0 0.00 0.00 0.00 95 1017.4
20260831073705 55 216 2.0 3.0 0.00 0.00 0.00 95 1017.4
20260831073205 55 229 2.0 3.0 0.00 0.00 0.00 95 1017.4
20260831072203 54 228 2.0 3.0 0.00 0.00 0.00 95 1017.5
20260831071706 53 215 0.0 0.0 0.00 0.00 0.00 94 1017.7
20260831071204 53 215 0.0 0.0 0.00 0.00 0.00 94 1017.6
20260831070705 53 215 0.0 0.0 0.00 0.00 0.00 93 1017.8
20260831070205 53 215 0.0 0.0 0.00 0.00 0.00 93 1017.8
20260831065704 54 215 0.0 0.0 0.00 0.00 0.00 93 1017.8
20260831064705 54 215 0.0 0.0 0.00 0.00 0.00 93 1017.9
20260831063705 54 215 0.0 0.0 0.00 0.00 0.00 93 1018.0
20260831062205 54 215 0.0 0.0 0.00 0.00 0.00 92 1018.1
20260831061705 54 215 0.0 0.0 0.00 0.00 0.00 91 1018.1
20260831061204 54 215 0.0 0.0 0.00 0.00 0.00 91 1018.0
20260831060703 54 258 0.0 0.0 0.00 0.00 0.00 90 1018.0
20260831060204 55 258 0.0 2.0 0.00 0.00 0.00 90 1018.0
20260831055704 55 258 1.0 2.0 0.00 0.00 0.00 90 1018.0
20260831055205 56 258 1.0 2.0 0.00 0.00 0.00 90 1018.1
20260831054705 56 258 1.0 2.0 0.00 0.00 0.00 90 1018.1
20260831053704 57 258 1.0 2.0 0.00 0.00 0.00 89 1018.2
20260831053204 58 258 1.0 1.0 0.00 0.00 0.00 89 1018.2
20260831052204 58 258 0.0 1.0 0.00 0.00 0.00 89 1018.3
20260831051706 58 258 1.0 2.0 0.00 0.00 0.00 89 1018.3
20260831051204 59 258 1.0 2.0 0.00 0.00 0.00 89 1018.4
20260831050205 59 258 2.0 3.0 0.00 0.00 0.00 88 1018.5
20260831045204 60 258 1.0 3.0 0.00 0.00 0.00 87 1018.6
20260831044705 60 258 2.0 3.0 0.00 0.00 0.00 87 1018.5
20260831044204 60 270 2.0 3.0 0.00 0.00 0.00 87 1018.5
20260831043705 60 260 2.0 3.0 0.00 0.00 0.00 86 1018.5
20260831043206 60 275 2.0 3.0 0.00 0.00 0.00 86 1018.6
20260831042704 60 272 2.0 3.0 0.00 0.00 0.00 86 1018.6
20260831042204 61 262 3.0 6.0 0.00 0.00 0.00 86 1018.7
20260831040705 61 267 2.0 6.0 0.00 0.00 0.00 86 1018.7
20260831040204 61 285 1.0 3.0 0.00 0.00 0.00 85 1018.7
20260831035204 61 282 2.0 3.0 0.00 0.00 0.00 85 1018.6
20260831034705 61 256 2.0 6.0 0.00 0.00 0.00 85 1018.6
20260831034203 61 290 2.0 3.0 0.00 0.00 0.00 85 1018.6
20260831033704 61 265 1.0 3.0 0.00 0.00 0.00 85 1018.5
20260831033204 61 269 1.0 3.0 0.00 0.00 0.00 85 1018.6
20260831032705 61 273 2.0 3.0 0.00 0.00 0.00 85 1018.6
20260831032204 61 286 2.0 3.0 0.00 0.00 0.00 84 1018.6
20260831031203 61 288 2.0 3.0 0.00 0.00 0.00 84 1018.6
20260831030704 61 271 1.0 3.0 0.00 0.00 0.00 84 1018.6
20260831030204 62 272 1.0 3.0 0.00 0.00 0.00 84 1018.6
20260831025204 62 281 1.0 3.0 0.00 0.00 0.00 84 1018.7
20260831024704 62 279 2.0 3.0 0.00 0.00 0.00 84 1018.7
20260831024204 62 280 2.0 3.0 0.00 0.00 0.00 83 1018.7
20260831023705 62 284 2.0 3.0 0.00 0.00 0.00 83 1018.7
20260831022204 62 258 2.0 8.0 0.00 0.00 0.00 83 1018.8
20260831021705 62 259 3.0 8.0 0.00 0.00 0.00 82 1018.8
20260831021204 63 296 2.0 3.0 0.00 0.00 0.00 82 1018.9
20260831020205 63 295 3.0 7.0 0.00 0.00 0.00 82 1019.0
20260831015706 63 272 3.0 7.0 0.00 0.00 0.00 81 1019.0
20260831015204 63 262 3.0 7.0 0.00 0.00 0.00 81 1019.0
20260831014704 63 295 3.0 6.0 0.00 0.00 0.00 81 1019.0
20260831014205 63 276 4.0 8.0 0.00 0.00 0.00 80 1019.0
20260831013703 63 299 3.0 8.0 0.00 0.00 0.00 80 1019.1
20260831013204 64 285 4.0 7.0 0.00 0.00 0.00 79 1019.1
20260831012704 64 286 3.0 7.0 0.00 0.00 0.00 80 1019.1
20260831012204 64 292 3.0 5.0 0.00 0.00 0.00 80 1019.1
20260831011705 64 319 3.0 5.0 0.00 0.00 0.00 80 1019.2
20260831011204 64 315 2.0 3.0 0.00 0.00 0.00 80 1019.2
20260831010205 64 313 1.0 3.0 0.00 0.00 0.00 79 1019.1
20260831005705 64 284 1.0 3.0 0.00 0.00 0.00 79 1019.2
20260831005205 63 260 3.0 5.0 0.00 0.00 0.00 80 1019.2
20260831004704 63 278 3.0 7.0 0.00 0.00 0.00 79 1019.3
20260831004205 63 285 4.0 7.0 0.00 0.00 0.00 79 1019.3
20260831003704 63 265 3.0 7.0 0.00 0.00 0.00 79 1019.5
20260831003204 63 279 3.0 8.0 0.00 0.00 0.00 79 1019.5
20260831002704 64 279 7.0 10.0 0.00 0.00 0.00 78 1019.5
20260831002203 64 251 6.0 9.0 0.00 0.00 0.00 78 1019.5
20260831001705 64 285 4.0 9.0 0.00 0.00 0.00 78 1019.5
20260830235704 65 295 8.0 10.0 0.00 0.00 0.00 76 1019.6
20260830234705 65 286 5.0 12.0 0.00 0.00 0.00 74 1019.6
20260830234204 65 305 4.0 8.0 0.00 0.00 0.00 74 1019.7
20260830233706 65 299 5.0 8.0 0.00 0.00 0.00 74 1019.7
20260830233206 65 303 6.0 12.0 0.00 0.00 0.00 74 1019.8
20260830232204 66 294 7.0 10.0 0.00 0.00 0.00 72 1019.8
20260830231705 66 297 6.0 12.0 0.00 0.00 0.00 73 1019.8
20260830231203 66 285 7.0 12.0 0.00 0.00 0.00 72 1019.8
20260830230703 66 276 7.0 12.0 0.00 0.00 0.00 71 1019.8
20260830230205 66 294 5.0 12.0 0.00 0.00 0.00 72 1019.8
20260830225704 66 281 7.0 12.0 0.00 0.00 0.00 71 1019.8
20260830224704 66 269 6.0 10.0 0.00 0.00 0.00 69 1019.9
20260830223705 66 286 3.0 8.0 0.00 0.00 0.00 69 1019.9
20260830223204 66 317 5.0 9.0 0.00 0.00 0.00 69 1019.9
20260830222704 66 277 4.0 6.0 0.00 0.00 0.00 69 1020.0
20260830222204 66 280 4.0 7.0 0.00 0.00 0.00 69 1019.9
20260830221704 66 309 3.0 8.0 0.00 0.00 0.00 69 1020.0
20260830221204 66 284 4.0 8.0 0.00 0.00 0.00 70 1020.0
20260830220704 66 279 6.0 9.0 0.00 0.00 0.00 70 1020.1
20260830220204 66 287 6.0 12.0 0.00 0.00 0.00 71 1020.1
20260830215705 66 301 3.0 8.0 0.00 0.00 0.00 72 1020.2
20260830215204 66 307 6.0 9.0 0.00 0.00 0.00 71 1020.3
20260830214706 66 304 7.0 12.0 0.00 0.00 0.00 72 1020.3
20260830214203 66 265 7.0 12.0 0.00 0.00 0.00 72 1020.3
20260830213704 66 305 7.0 12.0 0.00 0.00 0.00 71 1020.4
20260830213204 66 280 8.0 12.0 0.00 0.00 0.00 70 1020.3
20260830212704 67 266 7.0 10.0 0.00 0.00 0.00 69 1020.3
20260830212204 67 280 4.0 8.0 0.00 0.00 0.00 68 1020.3
20260830211704 67 315 5.0 12.0 0.00 0.00 0.00 68 1020.3
20260830211204 68 358 6.0 9.0 0.00 0.00 0.00 67 1020.2
20260830210704 68 347 7.0 12.0 0.00 0.00 0.00 68 1020.2
20260830205704 67 309 5.0 8.0 0.00 0.00 0.00 68 1020.2
20260830205207 67 22 3.0 7.0 0.00 0.00 0.00 68 1020.2
20260830204705 67 332 5.0 8.0 0.00 0.00 0.00 69 1020.2
20260830204204 67 10 4.0 9.0 0.00 0.00 0.00 69 1020.2
20260830203205 66 9 6.0 10.0 0.00 0.00 0.00 70 1020.2
20260830202704 66 44 5.0 9.0 0.00 0.00 0.00 69 1020.2
20260830202204 66 352 2.0 9.0 0.00 0.00 0.00 69 1020.2
20260830201705 67 334 4.0 9.0 0.00 0.00 0.00 69 1020.2
20260830201205 67 48 4.0 9.0 0.00 0.00 0.00 70 1020.1
20260830200707 67 63 5.0 10.0 0.00 0.00 0.00 70 1020.2
20260830200206 66 46 3.0 9.0 0.00 0.00 0.00 69 1020.2
20260830195207 66 356 5.0 9.0 0.00 0.00 0.00 70 1020.2
20260830194709 66 20 4.0 8.0 0.00 0.00 0.00 69 1020.2
20260830192204 66 6 2.0 7.0 0.00 0.00 0.00 70 1020.2
20260830191705 66 28 5.0 9.0 0.00 0.00 0.00 72 1020.2
20260830191205 66 47 5.0 7.0 0.00 0.00 0.00 72 1020.3
20260830190704 66 65 2.0 7.0 0.00 0.00 0.00 72 1020.3
20260830190204 65 64 3.0 8.0 0.00 0.00 0.00 75 1020.3
20260830185705 64 52 4.0 8.0 0.00 0.00 0.00 75 1020.4
20260830185205 64 43 3.0 5.0 0.00 0.00 0.00 76 1020.5
20260830183705 64 66 5.0 10.0 0.00 0.00 0.00 74 1020.4
20260830183206 65 84 5.0 9.0 0.00 0.00 0.00 74 1020.4
20260830182704 65 60 3.0 9.0 0.00 0.00 0.00 72 1020.4
20260830182204 65 60 5.0 8.0 0.00 0.00 0.00 72 1020.5
20260830181705 65 60 5.0 8.0 0.00 0.00 0.00 71 1020.5
20260830181207 65 61 5.0 9.0 0.00 0.00 0.00 71 1020.5
20260830180704 65 354 3.0 8.0 0.00 0.00 0.00 74 1020.5
20260830180204 64 49 3.0 8.0 0.00 0.00 0.00 74 1020.5
20260830175212 64 72 5.0 8.0 0.00 0.00 0.00 75 1020.5
20260830174705 64 47 5.0 8.0 0.00 0.00 0.00 74 1020.5
20260830174205 65 78 6.0 8.0 0.00 0.00 0.00 73 1020.5
20260830173705 65 61 6.0 10.0 0.00 0.00 0.00 74 1020.4
20260830173220 65 39 5.0 10.0 0.00 0.00 0.00 74 1020.4
20260830172706 65 46 5.0 9.0 0.00 0.00 0.00 74 1020.3
20260830172224 64 36 3.0 9.0 0.00 0.00 0.00 75 1020.3
20260830171709 64 36 3.0 6.0 0.00 0.00 0.00 75 1020.3
20260830171211 64 63 4.0 8.0 0.00 0.00 0.00 75 1020.4
20260830170204 63 41 4.0 8.0 0.00 0.00 0.00 75 1020.3
20260830165705 63 45 4.0 7.0 0.00 0.00 0.00 76 1020.3
20260830165203 63 40 3.0 7.0 0.00 0.00 0.00 75 1020.3
20260830164704 64 40 3.0 8.0 0.00 0.00 0.00 75 1020.4
20260830164205 64 55 3.0 6.0 0.00 0.00 0.00 75 1020.4
20260830163705 64 41 4.0 5.0 0.00 0.00 0.00 75 1020.5
20260830163204 64 44 5.0 6.0 0.00 0.00 0.00 75 1020.4
20260830162704 63 65 3.0 5.0 0.00 0.00 0.00 77 1020.5
20260830162204 63 59 1.0 5.0 0.00 0.00 0.00 78 1020.5
20260830161704 62 33 3.0 3.0 0.00 0.00 0.00 79 1020.5
20260830160205 62 54 3.0 5.0 0.00 0.00 0.00 78 1020.4
20260830155705 62 35 3.0 3.0 0.00 0.00 0.00 79 1020.4
20260830154705 61 90 2.0 3.0 0.00 0.00 0.00 83 1020.4
20260830154205 60 90 1.0 5.0 0.00 0.00 0.00 84 1020.3
20260830153704 59 96 1.0 3.0 0.00 0.00 0.00 84 1020.4
20260830153205 59 86 1.0 2.0 0.00 0.00 0.00 85 1020.4
20260830151704 58 125 1.0 3.0 0.00 0.00 0.00 86 1020.4
20260830151203 57 154 2.0 3.0 0.00 0.00 0.00 86 1020.5
20260830150703 57 153 0.0 2.0 0.00 0.00 0.00 87 1020.4
20260830150206 57 146 1.0 3.0 0.00 0.00 0.00 87 1020.4
20260830145705 56 143 1.0 3.0 0.00 0.00 0.00 87 1020.3
20260830145204 56 178 2.0 3.0 0.00 0.00 0.00 87 1020.3
20260830144705 56 196 1.0 2.0 0.00 0.00 0.00 88 1020.3
20260830144204 56 178 0.0 2.0 0.00 0.00 0.00 88 1020.2
20260830143705 55 178 1.0 3.0 0.00 0.00 0.00 89 1020.2
20260830143205 55 179 1.0 3.0 0.00 0.00 0.00 89 1020.2
20260830142704 55 195 2.0 5.0 0.00 0.00 0.00 91 1020.2
20260830141704 54 160 0.0 0.0 0.00 0.00 0.00 91 1020.2